This demonstration page uses our WeatherBlox Daily Observations layout. Learn more.

Left ArrowRight Arrow

Hourly Observations for November 9, 2015

Temp ( °F °C ) Dew Point ( °F °C ) Humidity (%) Winds ( mph kmh ) Pressure ( in mb ) Visibility ( mi km ) Precip ( " mm )
12:53 am 00:53 Clear 35 1.7 27 -2.8 72 72 NW 6 9 29.83 1010 10 16 N/A
1:53 am 01:53 Clear 29 -1.7 24 -4.4 82 82 SSE 6 9 29.85 1011 10 16 N/A
2:53 am 02:53 Clear 27 -2.8 24 -4.4 89 89 N N/A 29.86 1011 10 16 N/A
3:53 am 03:53 Mostly Cloudy 27 -2.8 25 -3.9 92 92 SSW 3 6 29.87 1011 10 16 N/A
4:53 am 04:53 Cloudy 31 -0.6 29 -1.7 92 92 SW 6 9 29.89 1012 10 16 N/A
5:22 am 05:22 Cloudy 30 -1 28 -2 93 93 WNW 10 17 29.97 1015 8 13 N/A
5:32 am 05:32 Cloudy with Mist and Fog 30 -1 28 -2 93 93 WNW 10 17 29.94 1014 4 6 N/A
5:53 am 05:53 Cloudy with Mist and Fog 31 -0.6 31 -0.6 100 100 N 5 7 29.90 1013 3 5 N/A
6:53 am 06:53 Cloudy with Mist and Fog 32 undefined 31 -0.6 96 96 N N/A 29.91 1013 4 6 N/A
7:40 am 07:40 Cloudy with Mist and Fog 32 undefined 32 undefined 100 100 W 3 6 29.97 1015 2 3 N/A
7:53 am 07:53 Cloudy with Mist and Fog 33 0.6 32 undefined 96 96 W 3 6 29.93 1014 3 4 N/A
8:08 am 08:08 Cloudy with Mist and Fog 34 1 32 undefined 93 93 NW 5 7 29.97 1015 3 5 N/A
8:53 am 08:53 Mostly Cloudy with Mist and Fog 34 1.1 32 undefined 92 92 NNW 5 7 29.93 1014 5 8 N/A
9:53 am 09:53 Cloudy 36 2.2 32 undefined 86 86 NNE 7 11 29.91 1013 7 11 N/A
10:53 am 10:53 Cloudy 37 2.8 33 0.6 86 86 ENE 8 13 29.93 1013 10 16 N/A
11:12 am 11:12 Cloudy 37 3 34 1 87 87 ENE 12 19 29.91 1013 10 16 N/A
11:53 am 11:53 Cloudy 40 4.4 34 1.1 79 79 ENE 10 17 29.90 1013 10 16 N/A
12:53 pm 12:53 Cloudy 41 5 34 1.1 76 76 NE 14 22 29.88 1012 10 16 N/A
1:37 pm 13:37 Cloudy 41 5 34 1.1 76 76 NE 13 20 29.85 1011 10 16 N/A
1:53 pm 13:53 Cloudy 41 5 34 1.1 76 76 NE 10 17 29.90 1013 10 16 N/A
2:53 pm 14:53 Cloudy 40 4.4 34 1.1 79 79 NNE 14 22 29.89 1012 10 16 N/A
3:53 pm 15:53 Cloudy 40 4.4 34 1.1 79 79 NNE 12 19 29.90 1013 10 16 N/A
4:53 pm 16:53 Cloudy 39 3.9 33 0.6 79 79 NNE 12 19 29.89 1012 10 16 N/A
5:53 pm 17:53 Cloudy 38 3.3 33 0.6 83 83 NE 13 20 29.89 1012 10 16 N/A
6:25 pm 18:25 Cloudy 37 2.8 33 0.6 86 86 NE 13 20 29.91 1013 10 16 N/A
6:53 pm 18:53 Cloudy 37 2.8 32 undefined 82 82 NE 10 17 29.91 1013 10 16 N/A
7:53 pm 19:53 Cloudy 36 2.2 32 undefined 86 86 NE 9 15 29.91 1013 10 16 N/A
8:53 pm 20:53 Cloudy with Light Rain 36 2.2 33 0.6 89 89 ENE 8 13 29.92 1013 10 16 N/A
9:53 pm 21:53 Cloudy with Light Rain 37 2.8 34 1.1 89 89 ENE 8 13 29.92 1013 10 16 N/A
10:53 pm 22:53 Cloudy with Light Rain 36 2.2 34 1.1 93 93 ENE 7 11 29.93 1014 10 16 N/A
11:53 pm 23:53 Cloudy with Light Rain 35 1.7 33 0.6 93 93 NNE 7 11 29.93 1014 10 16 N/A

Powered by AerisWeather